Track ORIGAMISAT-1 (FO-98) now! 10-day predictions ORIGAMISAT-1 (FO-98) is classified as:
1 43933U 19003B 19049.13504193 .00000662 00000-0 32390-4 0 9999 2 43933 97.2989 110.4856 0018883 143.9113 300.6759 15.21440732 4725